BAW8648 LTFJ-LGAV

Flight info

Callsign BAW8648
Flight time N/A
Altitude 32000
Route IVGUS1J/06L IVGUS UY226 BIG UN604 OGSIL OGSIL1Q
Aircraft A320/M-SDE3FGIJ1KRWXY/SB1

Departure

Time 2026-05-05 17:28
Airport Istanbul Sabiha Gökçen International Airport (LTFJ)

Arrival

Time N/A
Airport Athens Eleftherios Venizelos International Airport (LGAV)
Time Latitude Longitude Altitude Speed Heading
2026-05-05 17:01 40.90505 29.31355 321 ft 0 kts 334°
2026-05-05 17:19 40.90505 29.31356 321 ft 1 kts 334°
2026-05-05 17:19 40.90484 29.31369 321 ft 4 kts 333°
2026-05-05 17:19 40.90461 29.31387 320 ft 4 kts 317°
2026-05-05 17:19 40.90446 29.31413 318 ft 4 kts 276°
2026-05-05 17:20 40.90446 29.31430 321 ft 0 kts 245°
2026-05-05 17:22 40.90443 29.31427 321 ft 1 kts 223°
2026-05-05 17:22 40.90419 29.31432 321 ft 6 kts 158°
2026-05-05 17:22 40.90372 29.31463 321 ft 9 kts 154°
2026-05-05 17:23 40.90311 29.31501 321 ft 9 kts 162°
2026-05-05 17:23 40.90264 29.31459 320 ft 10 kts 243°
2026-05-05 17:23 40.90225 29.31354 320 ft 17 kts 244°
2026-05-05 17:23 40.90170 29.31205 319 ft 19 kts 244°
2026-05-05 17:24 40.90109 29.31039 320 ft 21 kts 244°
2026-05-05 17:24 40.90042 29.30856 320 ft 23 kts 244°
2026-05-05 17:24 40.89981 29.30691 319 ft 19 kts 244°
2026-05-05 17:24 40.89919 29.30521 321 ft 22 kts 244°
2026-05-05 17:25 40.89850 29.30333 320 ft 24 kts 244°
2026-05-05 17:25 40.89800 29.30198 321 ft 25 kts 244°
2026-05-05 17:25 40.89695 29.29912 319 ft 27 kts 244°
2026-05-05 17:25 40.89612 29.29688 321 ft 28 kts 244°
2026-05-05 17:26 40.89524 29.29447 320 ft 30 kts 244°
2026-05-05 17:26 40.89461 29.29283 321 ft 13 kts 233°
2026-05-05 17:26 40.89385 29.29258 319 ft 13 kts 161°
2026-05-05 17:26 40.89315 29.29302 321 ft 11 kts 154°
2026-05-05 17:27 40.89282 29.29361 322 ft 6 kts 81°
2026-05-05 17:27 40.89289 29.29382 322 ft 0 kts 64°
2026-05-05 17:27 40.89306 29.29426 321 ft 20 kts 64°
2026-05-05 17:27 40.89481 29.29902 321 ft 91 kts 64°
2026-05-05 17:28 40.89843 29.30884 320 ft 143 kts 64°
2026-05-05 17:28 40.90333 29.32227 503 ft 169 kts 64°
2026-05-05 17:28 40.90841 29.33610 1198 ft 167 kts 64°
2026-05-05 17:28 40.91349 29.34986 1857 ft 166 kts 64°
2026-05-05 17:29 40.91875 29.36388 2316 ft 177 kts 64°
2026-05-05 17:29 40.92439 29.37918 2669 ft 194 kts 63°
2026-05-05 17:29 40.93067 29.39620 2900 ft 220 kts 64°
2026-05-05 17:29 40.93467 29.41677 3257 ft 245 kts 93°
2026-05-05 17:30 40.92861 29.43771 4025 ft 251 kts 130°
2026-05-05 17:30 40.91475 29.45123 4979 ft 249 kts 153°
2026-05-05 17:30 40.89865 29.46082 5699 ft 260 kts 158°
2026-05-05 17:30 40.88153 29.46970 6443 ft 268 kts 159°
2026-05-05 17:31 40.86386 29.47852 7242 ft 275 kts 160°
2026-05-05 17:31 40.84502 29.48394 7938 ft 283 kts 184°
2026-05-05 17:31 40.82611 29.47686 8711 ft 286 kts 210°
2026-05-05 17:31 40.81087 29.46001 9500 ft 289 kts 233°
2026-05-05 17:32 40.80158 29.43657 10278 ft 291 kts 251°
2026-05-05 17:32 40.79441 29.41049 10611 ft 314 kts 251°
2026-05-05 17:32 40.78681 29.38241 10876 ft 335 kts 251°
2026-05-05 17:32 40.77886 29.35296 11448 ft 345 kts 251°
2026-05-05 17:33 40.77074 29.32294 12180 ft 350 kts 251°
2026-05-05 17:33 40.76251 29.29263 12907 ft 354 kts 251°
2026-05-05 17:33 40.75410 29.26186 13635 ft 358 kts 251°
2026-05-05 17:33 40.74559 29.23090 14366 ft 361 kts 251°
2026-05-05 17:34 40.73695 29.19958 15074 ft 365 kts 251°
2026-05-05 17:34 40.72822 29.16796 15763 ft 369 kts 251°
2026-05-05 17:34 40.71902 29.13465 16433 ft 373 kts 251°
2026-05-05 17:34 40.71033 29.10325 17057 ft 376 kts 251°
2026-05-05 17:35 40.70144 29.07118 17676 ft 380 kts 251°
2026-05-05 17:35 40.69233 29.03838 18301 ft 383 kts 250°
2026-05-05 17:35 40.68314 29.00530 18920 ft 386 kts 251°
2026-05-05 17:35 40.67384 28.97193 19538 ft 390 kts 250°
2026-05-05 17:36 40.66444 28.93825 20159 ft 394 kts 251°
2026-05-05 17:36 40.65495 28.90437 20750 ft 396 kts 251°
2026-05-05 17:36 40.64541 28.87013 21309 ft 400 kts 251°
2026-05-05 17:36 40.63582 28.83554 21858 ft 404 kts 251°
2026-05-05 17:37 40.62613 28.80061 22406 ft 408 kts 251°
2026-05-05 17:37 40.61951 28.77685 22786 ft 410 kts 251°
2026-05-05 17:37 40.60636 28.72993 23512 ft 415 kts 251°
2026-05-05 17:37 40.59634 28.69425 24060 ft 418 kts 251°
2026-05-05 17:38 40.58618 28.65829 24600 ft 421 kts 250°
2026-05-05 17:38 40.57595 28.62205 25127 ft 424 kts 251°
2026-05-05 17:38 40.56568 28.58556 25635 ft 427 kts 251°
2026-05-05 17:38 40.55534 28.54881 26137 ft 430 kts 251°
2026-05-05 17:39 40.54491 28.51180 26624 ft 433 kts 250°
2026-05-05 17:39 40.53435 28.47464 27084 ft 436 kts 250°
2026-05-05 17:39 40.52370 28.43723 27547 ft 438 kts 250°
2026-05-05 17:39 40.51298 28.39957 27996 ft 441 kts 250°
2026-05-05 17:40 40.50222 28.36176 28443 ft 444 kts 250°
2026-05-05 17:40 40.49077 28.32396 28850 ft 447 kts 244°
2026-05-05 17:40 40.47352 28.28983 29224 ft 451 kts 232°
2026-05-05 17:40 40.45381 28.25782 29695 ft 451 kts 232°
2026-05-05 17:41 40.43402 28.22592 30230 ft 449 kts 231°
2026-05-05 17:41 40.41428 28.19424 30751 ft 447 kts 232°
2026-05-05 17:41 40.39460 28.16271 31244 ft 446 kts 232°
2026-05-05 17:41 40.37496 28.13128 31741 ft 445 kts 232°
2026-05-05 17:42 40.35534 28.09980 32016 ft 445 kts 232°
2026-05-05 17:42 40.31619 28.03697 32084 ft 445 kts 232°
2026-05-05 17:43 40.27718 27.97456 32082 ft 445 kts 232°
2026-05-05 17:43 40.23762 27.91156 32082 ft 445 kts 232°
2026-05-05 17:44 40.19864 27.84939 32071 ft 445 kts 232°
2026-05-05 17:44 40.15939 27.78681 32073 ft 445 kts 232°
2026-05-05 17:45 40.12002 27.72434 32073 ft 445 kts 232°
2026-05-05 17:45 40.08066 27.66194 32073 ft 445 kts 232°
2026-05-05 17:46 40.04767 27.60973 32072 ft 445 kts 232°
2026-05-05 17:46 40.00820 27.54747 32072 ft 445 kts 232°
2026-05-05 17:47 39.96867 27.48528 32073 ft 445 kts 232°
2026-05-05 17:47 39.92916 27.42311 32077 ft 445 kts 232°
2026-05-05 17:48 39.88964 27.36103 32076 ft 445 kts 232°